| time (UTC) | temp F | wind direction | speed MPH | gust MPH | rain 1hr in | rain 24hr in | rain mn in | humidity % | barometer mb |
| 20260506084506 | 54 | 314 | 1.0 | 3.0 | 0.00 | 0.00 | 0.00 | 85 | 1015.5 |
| 20260506084005 | 54 | 360 | 1.0 | 3.0 | 0.00 | 0.00 | 0.00 | 85 | 1015.5 |
| 20260506083504 | 54 | 309 | 1.0 | 3.0 | 0.00 | 0.00 | 0.00 | 85 | 1015.4 |
| 20260506083007 | 54 | 295 | 1.0 | 3.0 | 0.00 | 0.00 | 0.00 | 84 | 1015.4 |
| 20260506082505 | 54 | 191 | 1.0 | 3.0 | 0.00 | 0.00 | 0.00 | 84 | 1015.3 |
| 20260506082002 | 55 | 41 | 0.0 | 2.0 | 0.00 | 0.00 | 0.00 | 84 | 1015.4 |
| 20260506081501 | 55 | 41 | 0.0 | 2.0 | 0.00 | 0.00 | 0.00 | 84 | 1015.4 |
| 20260506081004 | 55 | 41 | 0.0 | 2.0 | 0.00 | 0.00 | 0.00 | 83 | 1015.3 |
| 20260506080600 | 55 | 41 | 0.0 | 3.0 | 0.00 | 0.00 | 0.00 | 84 | 1015.3 |
| 20260506073056 | 56 | 320 | 1.0 | 2.0 | 0.00 | 0.00 | 0.00 | 82 | 1015.1 |
| 20260506072554 | 56 | 320 | 1.0 | 2.0 | 0.00 | 0.00 | 0.00 | 81 | 1015.1 |
| 20260506072054 | 56 | 320 | 1.0 | 3.0 | 0.00 | 0.00 | 0.00 | 81 | 1015.0 |
| 20260506071553 | 56 | 320 | 1.0 | 4.0 | 0.00 | 0.00 | 0.00 | 81 | 1015.0 |
| 20260506071051 | 57 | 330 | 2.0 | 4.0 | 0.00 | 0.00 | 0.00 | 80 | 1015.0 |
| 20260506070551 | 57 | 326 | 1.0 | 3.0 | 0.00 | 0.00 | 0.00 | 81 | 1015.0 |
| 20260506062047 | 56 | 5 | 1.0 | 3.0 | 0.00 | 0.00 | 0.00 | 81 | 1014.7 |
| 20260506061550 | 56 | 14 | 1.0 | 3.0 | 0.00 | 0.00 | 0.00 | 81 | 1014.7 |
| 20260506061048 | 57 | 320 | 1.0 | 3.0 | 0.00 | 0.00 | 0.00 | 80 | 1014.8 |
| 20260506060546 | 57 | 285 | 1.0 | 3.0 | 0.00 | 0.00 | 0.00 | 80 | 1014.7 |
| 20260506051043 | 58 | 5 | 1.0 | 3.0 | 0.00 | 0.00 | 0.00 | 79 | 1014.4 |
| 20260506050543 | 58 | 5 | 1.0 | 2.0 | 0.00 | 0.00 | 0.00 | 79 | 1014.3 |
| 20260506045043 | 58 | 5 | 1.0 | 2.0 | 0.00 | 0.00 | 0.00 | 78 | 1014.3 |
| 20260506044545 | 59 | 5 | 0.0 | 1.0 | 0.00 | 0.00 | 0.00 | 78 | 1014.2 |
| 20260506044042 | 59 | 5 | 0.0 | 2.0 | 0.00 | 0.00 | 0.00 | 78 | 1014.1 |
| 20260506043542 | 59 | 5 | 1.0 | 2.0 | 0.00 | 0.00 | 0.00 | 77 | 1014.0 |
| 20260506043042 | 59 | 40 | 2.0 | 3.0 | 0.00 | 0.00 | 0.00 | 77 | 1014.1 |
| 20260506042542 | 59 | 40 | 1.0 | 3.0 | 0.00 | 0.00 | 0.00 | 76 | 1014.1 |
| 20260506042044 | 59 | 16 | 1.0 | 2.0 | 0.00 | 0.00 | 0.00 | 76 | 1014.1 |
| 20260506041556 | 60 | 16 | 1.0 | 2.0 | 0.00 | 0.00 | 0.00 | 75 | 1014.1 |
| 20260506041041 | 60 | 276 | 1.0 | 2.0 | 0.00 | 0.00 | 0.00 | 75 | 1014.0 |
| 20260506040540 | 60 | 187 | 0.0 | 1.0 | 0.00 | 0.00 | 0.00 | 75 | 1013.9 |
| 20260506040040 | 60 | 187 | 0.0 | 1.0 | 0.00 | 0.00 | 0.00 | 74 | 1013.9 |
| 20260506035541 | 60 | 187 | 0.0 | 1.0 | 0.00 | 0.00 | 0.00 | 73 | 1013.9 |
| 20260506035040 | 61 | 187 | 0.0 | 2.0 | 0.00 | 0.00 | 0.00 | 72 | 1013.8 |
| 20260506034549 | 61 | 187 | 0.0 | 3.0 | 0.00 | 0.00 | 0.00 | 72 | 1013.8 |
| 20260506034039 | 61 | 187 | 0.0 | 3.0 | 0.00 | 0.00 | 0.00 | 71 | 1013.7 |
| 20260506033539 | 61 | 168 | 0.0 | 2.0 | 0.00 | 0.00 | 0.00 | 70 | 1013.7 |
| 20260506033041 | 62 | 168 | 0.0 | 4.0 | 0.00 | 0.00 | 0.00 | 69 | 1013.6 |
| 20260506032543 | 62 | 191 | 1.0 | 4.0 | 0.00 | 0.00 | 0.00 | 69 | 1013.6 |
| 20260506032039 | 62 | 176 | 3.0 | 5.0 | 0.00 | 0.00 | 0.00 | 68 | 1013.4 |
| 20260506031539 | 63 | 180 | 2.0 | 6.0 | 0.00 | 0.00 | 0.00 | 68 | 1013.4 |
| 20260506031038 | 63 | 199 | 0.0 | 3.0 | 0.00 | 0.00 | 0.00 | 68 | 1013.3 |
| 20260506030538 | 63 | 155 | 1.0 | 5.0 | 0.00 | 0.00 | 0.00 | 67 | 1013.4 |
| 20260506030039 | 64 | 99 | 2.0 | 6.0 | 0.00 | 0.00 | 0.00 | 67 | 1013.3 |
| 20260506025539 | 64 | 180 | 3.0 | 6.0 | 0.00 | 0.00 | 0.00 | 66 | 1013.3 |
| 20260506025037 | 64 | 174 | 3.0 | 5.0 | 0.00 | 0.00 | 0.00 | 66 | 1013.3 |
| 20260506024537 | 65 | 137 | 0.0 | 6.0 | 0.00 | 0.00 | 0.00 | 65 | 1013.2 |
| 20260506024037 | 65 | 179 | 3.0 | 6.0 | 0.00 | 0.00 | 0.00 | 65 | 1013.2 |
| 20260506023537 | 66 | 167 | 1.0 | 7.0 | 0.00 | 0.00 | 0.00 | 63 | 1013.2 |
| 20260506023037 | 66 | 216 | 4.0 | 7.0 | 0.00 | 0.00 | 0.00 | 63 | 1013.2 |
| 20260506022536 | 66 | 235 | 3.0 | 7.0 | 0.00 | 0.00 | 0.00 | 63 | 1013.3 |
| 20260506022036 | 67 | 184 | 4.0 | 7.0 | 0.00 | 0.00 | 0.00 | 62 | 1013.2 |
| 20260506021535 | 67 | 164 | 1.0 | 7.0 | 0.00 | 0.00 | 0.00 | 63 | 1013.2 |
| 20260506021035 | 67 | 174 | 3.0 | 7.0 | 0.00 | 0.00 | 0.00 | 62 | 1013.2 |
| 20260506020534 | 67 | 164 | 3.0 | 6.0 | 0.00 | 0.00 | 0.00 | 63 | 1013.2 |
| 20260506020040 | 67 | 188 | 3.0 | 9.0 | 0.00 | 0.00 | 0.00 | 63 | 1013.2 |
| 20260506015534 | 67 | 188 | 5.0 | 9.0 | 0.00 | 0.00 | 0.00 | 62 | 1013.2 |
| 20260506015036 | 67 | 210 | 3.0 | 7.0 | 0.00 | 0.00 | 0.00 | 62 | 1013.3 |
| 20260506014534 | 67 | 176 | 4.0 | 8.0 | 0.00 | 0.00 | 0.00 | 62 | 1013.2 |
| 20260506014035 | 67 | 199 | 4.0 | 9.0 | 0.00 | 0.00 | 0.00 | 61 | 1013.1 |
| 20260506013534 | 68 | 206 | 4.0 | 10.0 | 0.00 | 0.00 | 0.00 | 62 | 1013.1 |
| 20260506013048 | 68 | 199 | 6.0 | 10.0 | 0.00 | 0.00 | 0.00 | 61 | 1013.2 |
| 20260506012536 | 68 | 211 | 5.0 | 10.0 | 0.00 | 0.00 | 0.00 | 61 | 1013.2 |
| 20260506012034 | 68 | 196 | 5.0 | 8.0 | 0.00 | 0.00 | 0.00 | 61 | 1013.2 |
| 20260506011540 | 68 | 210 | 2.0 | 9.0 | 0.00 | 0.00 | 0.00 | 61 | 1013.2 |
| 20260506011032 | 68 | 231 | 3.0 | 9.0 | 0.00 | 0.00 | 0.00 | 61 | 1013.3 |
| 20260506010533 | 68 | 152 | 5.0 | 10.0 | 0.00 | 0.00 | 0.00 | 60 | 1013.4 |
| 20260506010034 | 68 | 222 | 5.0 | 10.0 | 0.00 | 0.00 | 0.00 | 60 | 1013.3 |
| 20260506005532 | 68 | 214 | 3.0 | 10.0 | 0.00 | 0.00 | 0.00 | 60 | 1013.3 |
| 20260506005031 | 69 | 212 | 4.0 | 10.0 | 0.00 | 0.00 | 0.00 | 59 | 1013.4 |
| 20260506004532 | 69 | 181 | 4.0 | 10.0 | 0.00 | 0.00 | 0.00 | 60 | 1013.3 |
| 20260506004031 | 69 | 171 | 4.0 | 9.0 | 0.00 | 0.00 | 0.00 | 60 | 1013.3 |
| 20260506003531 | 69 | 218 | 3.0 | 9.0 | 0.00 | 0.00 | 0.00 | 59 | 1013.3 |
| 20260506003031 | 69 | 243 | 4.0 | 9.0 | 0.00 | 0.00 | 0.00 | 59 | 1013.2 |
| 20260506002531 | 69 | 229 | 4.0 | 10.0 | 0.00 | 0.00 | 0.00 | 59 | 1013.2 |
| 20260506002029 | 69 | 168 | 5.0 | 10.0 | 0.00 | 0.00 | 0.00 | 59 | 1013.1 |
| 20260506001529 | 70 | 193 | 2.0 | 10.0 | 0.00 | 0.00 | 0.00 | 59 | 1013.2 |
| 20260506001029 | 70 | 204 | 5.0 | 10.0 | 0.00 | 0.00 | 0.00 | 59 | 1013.3 |
| 20260506000528 | 70 | 210 | 4.0 | 10.0 | 0.00 | 0.00 | 0.00 | 59 | 1013.3 |
| 20260506000029 | 70 | 203 | 4.0 | 9.0 | 0.00 | 0.00 | 0.00 | 58 | 1013.3 |
| 20260505235528 | 70 | 232 | 3.0 | 9.0 | 0.00 | 0.00 | 0.00 | 58 | 1013.3 |
| 20260505235028 | 70 | 155 | 5.0 | 12.0 | 0.00 | 0.00 | 0.00 | 57 | 1013.3 |
| 20260505234528 | 71 | 181 | 8.0 | 12.0 | 0.00 | 0.00 | 0.00 | 57 | 1013.4 |
| 20260505234028 | 70 | 237 | 3.0 | 9.0 | 0.00 | 0.00 | 0.00 | 57 | 1013.4 |
| 20260505233529 | 70 | 216 | 5.0 | 9.0 | 0.00 | 0.00 | 0.00 | 57 | 1013.4 |
| 20260505233028 | 70 | 174 | 4.0 | 11.0 | 0.00 | 0.00 | 0.00 | 57 | 1013.5 |
| 20260505232526 | 70 | 191 | 7.0 | 11.0 | 0.00 | 0.00 | 0.00 | 56 | 1013.5 |
| 20260505232026 | 71 | 210 | 6.0 | 9.0 | 0.00 | 0.00 | 0.00 | 57 | 1013.6 |
| 20260505231527 | 70 | 209 | 1.0 | 9.0 | 0.00 | 0.00 | 0.00 | 57 | 1013.6 |
| 20260505231125 | 71 | 212 | 4.0 | 10.0 | 0.00 | 0.00 | 0.00 | 57 | 1013.7 |
| 20260505230525 | 71 | 168 | 6.0 | 10.0 | 0.00 | 0.00 | 0.00 | 56 | 1013.7 |
| 20260505230024 | 71 | 234 | 4.0 | 9.0 | 0.00 | 0.00 | 0.00 | 57 | 1013.8 |
| 20260505225524 | 71 | 248 | 5.0 | 9.0 | 0.00 | 0.00 | 0.00 | 56 | 1013.9 |
| 20260505225027 | 71 | 170 | 3.0 | 8.0 | 0.00 | 0.00 | 0.00 | 55 | 1013.9 |
| 20260505224524 | 71 | 207 | 4.0 | 8.0 | 0.00 | 0.00 | 0.00 | 56 | 1014.0 |
| 20260505224023 | 71 | 185 | 4.0 | 8.0 | 0.00 | 0.00 | 0.00 | 57 | 1014.0 |
| 20260505223527 | 70 | 173 | 2.0 | 9.0 | 0.00 | 0.00 | 0.00 | 56 | 1014.0 |
| 20260505223022 | 70 | 216 | 6.0 | 9.0 | 0.00 | 0.00 | 0.00 | 56 | 1014.0 |
| 20260505222525 | 70 | 238 | 3.0 | 10.0 | 0.00 | 0.00 | 0.00 | 56 | 1014.0 |
| 20260505222022 | 71 | 224 | 4.0 | 11.0 | 0.00 | 0.00 | 0.00 | 56 | 1014.0 |
| 20260505221522 | 71 | 197 | 6.0 | 11.0 | 0.00 | 0.00 | 0.00 | 56 | 1014.1 |
| 20260505221021 | 71 | 225 | 3.0 | 7.0 | 0.00 | 0.00 | 0.00 | 57 | 1014.1 |
| 20260505220519 | 70 | 193 | 3.0 | 8.0 | 0.00 | 0.00 | 0.00 | 57 | 1014.1 |
| 20260505220030 | 70 | 170 | 3.0 | 9.0 | 0.00 | 0.00 | 0.00 | 58 | 1014.1 |
| 20260505215519 | 70 | 195 | 4.0 | 11.0 | 0.00 | 0.00 | 0.00 | 57 | 1014.2 |
| 20260505215018 | 70 | 115 | 4.0 | 11.0 | 0.00 | 0.00 | 0.00 | 57 | 1014.2 |
| 20260505214522 | 70 | 136 | 4.0 | 8.0 | 0.00 | 0.00 | 0.00 | 57 | 1014.2 |
| 20260505214018 | 70 | 207 | 4.0 | 9.0 | 0.00 | 0.00 | 0.00 | 59 | 1014.3 |
| 20260505213523 | 69 | 198 | 5.0 | 9.0 | 0.00 | 0.00 | 0.00 | 58 | 1014.3 |
| 20260505213017 | 70 | 232 | 5.0 | 8.0 | 0.00 | 0.00 | 0.00 | 59 | 1014.3 |
| 20260505212517 | 70 | 270 | 3.0 | 8.0 | 0.00 | 0.00 | 0.00 | 58 | 1014.3 |
| 20260505212016 | 70 | 269 | 1.0 | 8.0 | 0.00 | 0.00 | 0.00 | 59 | 1014.3 |
| 20260505211516 | 69 | 180 | 3.0 | 10.0 | 0.00 | 0.00 | 0.00 | 58 | 1014.4 |
| 20260505211019 | 69 | 180 | 6.0 | 10.0 | 0.00 | 0.00 | 0.00 | 59 | 1014.4 |
| 20260505210514 | 69 | 222 | 4.0 | 8.0 | 0.00 | 0.00 | 0.00 | 59 | 1014.4 |
| 20260505210014 | 69 | 217 | 3.0 | 8.0 | 0.00 | 0.00 | 0.00 | 61 | 1014.4 |
| 20260505205514 | 69 | 166 | 2.0 | 10.0 | 0.00 | 0.00 | 0.00 | 59 | 1014.5 |
| 20260505205014 | 69 | 207 | 6.0 | 10.0 | 0.00 | 0.00 | 0.00 | 59 | 1014.6 |
| 20260505204514 | 69 | 240 | 4.0 | 10.0 | 0.00 | 0.00 | 0.00 | 60 | 1014.6 |
| 20260505204014 | 69 | 180 | 6.0 | 10.0 | 0.00 | 0.00 | 0.00 | 59 | 1014.6 |
| 20260505203513 | 69 | 252 | 4.0 | 8.0 | 0.00 | 0.00 | 0.00 | 59 | 1014.6 |
| 20260505203013 | 69 | 215 | 4.0 | 8.0 | 0.00 | 0.00 | 0.00 | 60 | 1014.6 |
| 20260505202512 | 69 | 214 | 3.0 | 9.0 | 0.00 | 0.00 | 0.00 | 60 | 1014.6 |
| 20260505202011 | 68 | 221 | 3.0 | 11.0 | 0.00 | 0.00 | 0.00 | 60 | 1014.7 |
| 20260505201510 | 68 | 201 | 5.0 | 11.0 | 0.00 | 0.00 | 0.00 | 62 | 1014.7 |
| 20260505201009 | 68 | 209 | 5.0 | 10.0 | 0.00 | 0.00 | 0.00 | 62 | 1014.7 |
| 20260505200512 | 68 | 187 | 6.0 | 10.0 | 0.00 | 0.00 | 0.00 | 62 | 1014.7 |
| 20260505200014 | 67 | 228 | 3.0 | 10.0 | 0.00 | 0.00 | 0.00 | 65 | 1014.7 |
| 20260505195506 | 67 | 203 | 2.0 | 8.0 | 0.00 | 0.00 | 0.00 | 65 | 1014.7 |
| 20260505195005 | 67 | 210 | 4.0 | 9.0 | 0.00 | 0.00 | 0.00 | 64 | 1014.7 |
| 20260505194503 | 67 | 186 | 4.0 | 8.0 | 0.00 | 0.00 | 0.00 | 66 | 1014.7 |
| 20260505194004 | 66 | 179 | 5.0 | 9.0 | 0.00 | 0.00 | 0.00 | 66 | 1014.7 |
| 20260505193501 | 66 | 165 | 4.0 | 10.0 | 0.00 | 0.00 | 0.00 | 66 | 1014.8 |
| 20260505193106 | 66 | 202 | 2.0 | 10.0 | 0.00 | 0.00 | 0.00 | 66 | 1014.7 |
| 20260505192600 | 66 | 165 | 3.0 | 10.0 | 0.00 | 0.00 | 0.00 | 67 | 1014.7 |
| 20260505192057 | 65 | 122 | 6.0 | 10.0 | 0.00 | 0.00 | 0.00 | 67 | 1014.6 |
| 20260505191608 | 65 | 220 | 3.0 | 7.0 | 0.00 | 0.00 | 0.00 | 68 | 1014.7 |
| 20260505191056 | 65 | 222 | 3.0 | 9.0 | 0.00 | 0.00 | 0.00 | 67 | 1014.7 |
| 20260505190556 | 65 | 217 | 4.0 | 10.0 | 0.00 | 0.00 | 0.00 | 68 | 1014.8 |
| 20260505190055 | 65 | 164 | 5.0 | 10.0 | 0.00 | 0.00 | 0.00 | 68 | 1014.8 |
| 20260505185554 | 65 | 182 | 4.0 | 9.0 | 0.00 | 0.00 | 0.00 | 68 | 1014.8 |
| 20260505185053 | 65 | 225 | 4.0 | 9.0 | 0.00 | 0.00 | 0.00 | 68 | 1014.9 |
| 20260505184552 | 65 | 170 | 5.0 | 9.0 | 0.00 | 0.00 | 0.00 | 69 | 1014.8 |
| 20260505184051 | 64 | 92 | 4.0 | 9.0 | 0.00 | 0.00 | 0.00 | 70 | 1014.8 |
| 20260505183550 | 64 | 196 | 5.0 | 11.0 | 0.00 | 0.00 | 0.00 | 70 | 1014.8 |
| 20260505183050 | 64 | 183 | 4.0 | 11.0 | 0.00 | 0.00 | 0.00 | 70 | 1014.7 |
| 20260505182548 | 63 | 168 | 6.0 | 11.0 | 0.00 | 0.00 | 0.00 | 71 | 1014.7 |
| 20260505182047 | 63 | 217 | 4.0 | 10.0 | 0.00 | 0.00 | 0.00 | 71 | 1014.7 |
| 20260505181554 | 63 | 217 | 4.0 | 10.0 | 0.00 | 0.00 | 0.00 | 72 | 1014.7 |
| 20260505181043 | 63 | 228 | 3.0 | 9.0 | 0.00 | 0.00 | 0.00 | 73 | 1014.7 |
| 20260505180543 | 63 | 207 | 4.0 | 11.0 | 0.00 | 0.00 | 0.00 | 73 | 1014.7 |
| 20260505180043 | 62 | 111 | 4.0 | 11.0 | 0.00 | 0.00 | 0.00 | 73 | 1014.6 |
| 20260505175542 | 62 | 293 | 3.0 | 10.0 | 0.00 | 0.00 | 0.00 | 74 | 1014.7 |
| 20260505175041 | 62 | 220 | 3.0 | 10.0 | 0.00 | 0.00 | 0.00 | 74 | 1014.7 |
| 20260505174541 | 62 | 193 | 4.0 | 8.0 | 0.00 | 0.00 | 0.00 | 74 | 1014.6 |
| 20260505174040 | 62 | 245 | 3.0 | 9.0 | 0.00 | 0.00 | 0.00 | 75 | 1014.6 |
| 20260505173538 | 61 | 199 | 2.0 | 8.0 | 0.00 | 0.00 | 0.00 | 74 | 1014.6 |
| 20260505173037 | 61 | 184 | 4.0 | 9.0 | 0.00 | 0.00 | 0.00 | 75 | 1014.6 |
| 20260505172536 | 61 | 227 | 4.0 | 9.0 | 0.00 | 0.00 | 0.00 | 74 | 1014.6 |
| 20260505172038 | 61 | 220 | 5.0 | 9.0 | 0.00 | 0.00 | 0.00 | 75 | 1014.6 |
| 20260505171533 | 61 | 226 | 5.0 | 9.0 | 0.00 | 0.00 | 0.00 | 75 | 1014.6 |
| 20260505171031 | 61 | 214 | 5.0 | 8.0 | 0.00 | 0.00 | 0.00 | 74 | 1014.6 |
| 20260505170531 | 61 | 227 | 3.0 | 8.0 | 0.00 | 0.00 | 0.00 | 74 | 1014.6 |
| 20260505170031 | 61 | 197 | 4.0 | 10.0 | 0.00 | 0.00 | 0.00 | 73 | 1014.6 |
| 20260505165527 | 61 | 210 | 5.0 | 10.0 | 0.00 | 0.00 | 0.00 | 73 | 1014.6 |
| 20260505165029 | 61 | 220 | 2.0 | 9.0 | 0.00 | 0.00 | 0.00 | 73 | 1014.6 |
| 20260505164526 | 61 | 201 | 4.0 | 9.0 | 0.00 | 0.00 | 0.00 | 73 | 1014.5 |
| 20260505164024 | 61 | 192 | 5.0 | 8.0 | 0.00 | 0.00 | 0.00 | 73 | 1014.5 |
| 20260505163523 | 61 | 195 | 3.0 | 7.0 | 0.00 | 0.00 | 0.00 | 73 | 1014.5 |
| 20260505163021 | 61 | 201 | 2.0 | 8.0 | 0.00 | 0.00 | 0.00 | 73 | 1014.5 |
| 20260505162528 | 61 | 141 | 5.0 | 9.0 | 0.00 | 0.00 | 0.00 | 72 | 1014.5 |
| 20260505162018 | 61 | 197 | 6.0 | 9.0 | 0.00 | 0.00 | 0.00 | 72 | 1014.4 |
| 20260505161534 | 61 | 184 | 4.0 | 8.0 | 0.00 | 0.00 | 0.00 | 73 | 1014.4 |
| 20260505161016 | 61 | 197 | 4.0 | 8.0 | 0.00 | 0.00 | 0.00 | 73 | 1014.4 |
| 20260505160518 | 61 | 212 | 4.0 | 7.0 | 0.00 | 0.00 | 0.00 | 73 | 1014.4 |
| 20260505153006 | 60 | 179 | 5.0 | 10.0 | 0.00 | 0.00 | 0.00 | 75 | 1014.2 |
| 20260505152503 | 60 | 222 | 3.0 | 7.0 | 0.00 | 0.00 | 0.00 | 75 | 1014.2 |
| 20260505152001 | 60 | 139 | 4.0 | 9.0 | 0.00 | 0.00 | 0.00 | 76 | 1014.1 |
| 20260505151559 | 59 | 210 | 2.0 | 9.0 | 0.00 | 0.00 | 0.00 | 76 | 1014.0 |
| 20260505151057 | 59 | 174 | 4.0 | 8.0 | 0.00 | 0.00 | 0.00 | 77 | 1014.0 |
| 20260505150557 | 59 | 189 | 3.0 | 7.0 | 0.00 | 0.00 | 0.00 | 77 | 1014.0 |
| 20260505150105 | 58 | 214 | 4.0 | 8.0 | 0.00 | 0.00 | 0.00 | 77 | 1013.9 |
| 20260505140545 | 56 | 207 | 0.0 | 3.0 | 0.00 | 0.00 | 0.00 | 77 | 1013.4 |
| 20260505130115 | 55 | 57 | 1.0 | 4.0 | 0.00 | 0.00 | 0.00 | 76 | 1012.6 |
| 20260505124601 | 55 | 303 | 2.0 | 4.0 | 0.00 | 0.00 | 0.00 | 76 | 1012.5 |
| 20260505124058 | 55 | 114 | 0.0 | 3.0 | 0.00 | 0.00 | 0.00 | 76 | 1012.5 |
| 20260505123557 | 55 | 111 | 1.0 | 3.0 | 0.00 | 0.00 | 0.00 | 76 | 1012.4 |
| 20260505123102 | 55 | 293 | 0.0 | 3.0 | 0.00 | 0.00 | 0.00 | 76 | 1012.3 |
| 20260505122555 | 55 | 281 | 0.0 | 3.0 | 0.00 | 0.00 | 0.00 | 76 | 1012.2 |
| 20260505122054 | 55 | 60 | 0.0 | 5.0 | 0.00 | 0.00 | 0.00 | 76 | 1012.1 |
| 20260505121556 | 55 | 156 | 0.0 | 5.0 | 0.00 | 0.00 | 0.00 | 76 | 1012.1 |
| 20260505121053 | 55 | 47 | 2.0 | 5.0 | 0.00 | 0.00 | 0.00 | 76 | 1012.0 |
| 20260505120546 | 55 | 51 | 1.0 | 3.0 | 0.00 | 0.00 | 0.00 | 75 | 1012.0 |
| 20260505120049 | 55 | 14 | 0.0 | 4.0 | 0.00 | 0.00 | 0.00 | 75 | 1012.1 |
| 20260505115545 | 55 | 295 | 2.0 | 4.0 | 0.00 | 0.00 | 0.00 | 75 | 1012.0 |
| 20260505115044 | 56 | 354 | 1.0 | 3.0 | 0.00 | 0.00 | 0.00 | 74 | 1011.9 |
| 20260505114543 | 56 | 334 | 0.0 | 2.0 | 0.00 | 0.00 | 0.00 | 74 | 1011.8 |
| 20260505114042 | 56 | 334 | 0.0 | 2.0 | 0.00 | 0.00 | 0.00 | 74 | 1011.9 |
| 20260505113541 | 56 | 334 | 0.0 | 2.0 | 0.00 | 0.00 | 0.00 | 74 | 1011.8 |
| 20260505113042 | 56 | 334 | 0.0 | 2.0 | 0.00 | 0.00 | 0.00 | 73 | 1011.8 |
| 20260505112540 | 56 | 334 | 0.0 | 2.0 | 0.00 | 0.00 | 0.00 | 73 | 1011.7 |
| 20260505112039 | 57 | 334 | 0.0 | 1.0 | 0.00 | 0.00 | 0.00 | 73 | 1011.7 |
| 20260505111539 | 57 | 334 | 0.0 | 3.0 | 0.00 | 0.00 | 0.00 | 73 | 1011.7 |
| 20260505111037 | 57 | 334 | 2.0 | 3.0 | 0.00 | 0.00 | 0.00 | 73 | 1011.6 |
| 20260505110535 | 57 | 288 | 1.0 | 3.0 | 0.00 | 0.00 | 0.00 | 74 | 1011.5 |
| 20260505102012 | 58 | 10 | 0.0 | 2.0 | 0.00 | 0.00 | 0.00 | 68 | 1011.0 |
| 20260505101510 | 58 | 10 | 1.0 | 2.0 | 0.00 | 0.00 | 0.00 | 68 | 1011.0 |
| 20260505101009 | 58 | 10 | 0.0 | 2.0 | 0.00 | 0.00 | 0.00 | 68 | 1011.0 |
| 20260505100508 | 58 | 10 | 0.0 | 2.0 | 0.00 | 0.00 | 0.00 | 68 | 1010.9 |
| 20260505100014 | 58 | 10 | 1.0 | 2.0 | 0.00 | 0.00 | 0.00 | 68 | 1010.8 |
| 20260505095508 | 59 | 10 | 0.0 | 2.0 | 0.00 | 0.00 | 0.00 | 68 | 1010.7 |
| 20260505095004 | 59 | 10 | 1.0 | 2.0 | 0.00 | 0.00 | 0.00 | 68 | 1010.6 |
| 20260505094503 | 59 | 10 | 1.0 | 2.0 | 0.00 | 0.00 | 0.00 | 67 | 1010.4 |
| 20260505094004 | 59 | 317 | 0.0 | 2.0 | 0.00 | 0.00 | 0.00 | 66 | 1010.4 |
| 20260505093501 | 59 | 10 | 0.0 | 2.0 | 0.00 | 0.00 | 0.00 | 66 | 1010.4 |
| 20260505093002 | 60 | 43 | 0.0 | 2.0 | 0.00 | 0.00 | 0.00 | 66 | 1010.4 |
| 20260505092559 | 60 | 43 | 0.0 | 3.0 | 0.00 | 0.00 | 0.00 | 65 | 1010.3 |
| 20260505092058 | 60 | 43 | 1.0 | 3.0 | 0.00 | 0.00 | 0.00 | 65 | 1010.3 |
| 20260505091606 | 60 | 43 | 1.0 | 3.0 | 0.00 | 0.00 | 0.00 | 64 | 1010.2 |
| 20260505091101 | 60 | 16 | 0.0 | 3.0 | 0.00 | 0.00 | 0.00 | 64 | 1010.2 |
| 20260505090556 | 60 | 16 | 1.0 | 3.0 | 0.00 | 0.00 | 0.00 | 64 | 1010.1 |
| 20260505090104 | 60 | 42 | 1.0 | 3.0 | 0.00 | 0.00 | 0.00 | 64 | 1010.1 |
| 20260505085554 | 60 | 41 | 1.0 | 3.0 | 0.00 | 0.00 | 0.00 | 63 | 1010.1 |
| 20260505085054 | 61 | 40 | 1.0 | 3.0 | 0.00 | 0.00 | 0.00 | 62 | 1010.1 |